BAW601 LIPZ-EGLL

Flight info

Callsign BAW601
Flight time 1h 39m
Altitude 34000
Route ROKIB DCT RESIA/N0436F360 DCT ELMUR DCT RIPUS DCT DITON DCT HOC DCT LUL DCT RLP DCT ROTSI DCT KOTUN DCT NINAL DCT ABNUR DCT DIMAL DCT ALESO
Aircraft A319/M-SDE3FGHIRWY/LB1

Departure

Time 2026-05-04 13:35
Airport Venice Marco Polo Airport (LIPZ)

Arrival

Time 2026-05-04 15:14
Airport London Heathrow Airport (EGLL)
Time Latitude Longitude Altitude Speed Heading
2026-05-04 13:06 45.49999 12.33819 16 ft 0 kts 309°
2026-05-04 13:29 45.49990 12.33836 17 ft 3 kts 309°
2026-05-04 13:29 45.49978 12.33857 16 ft 3 kts 309°
2026-05-04 13:29 45.49965 12.33878 15 ft 3 kts 309°
2026-05-04 13:30 45.49956 12.33899 14 ft 3 kts 250°
2026-05-04 13:30 45.49961 12.33914 14 ft 0 kts 193°
2026-05-04 13:31 45.49960 12.33913 14 ft 1 kts 193°
2026-05-04 13:31 45.49936 12.33894 14 ft 6 kts 216°
2026-05-04 13:32 45.49891 12.33834 13 ft 11 kts 222°
2026-05-04 13:32 45.49825 12.33750 15 ft 13 kts 223°
2026-05-04 13:32 45.49769 12.33678 17 ft 12 kts 217°
2026-05-04 13:32 45.49680 12.33610 17 ft 18 kts 212°
2026-05-04 13:33 45.49612 12.33525 16 ft 7 kts 220°
2026-05-04 13:33 45.49561 12.33526 17 ft 10 kts 142°
2026-05-04 13:33 45.49569 12.33626 16 ft 13 kts 48°
2026-05-04 13:33 45.49591 12.33656 15 ft 0 kts 42°
2026-05-04 13:34 45.49606 12.33675 15 ft 16 kts 42°
2026-05-04 13:34 45.49846 12.33985 11 ft 77 kts 42°
2026-05-04 13:34 45.50388 12.34680 15 ft 132 kts 42°
2026-05-04 13:35 45.51189 12.35717 105 ft 171 kts 42°
2026-05-04 13:35 45.52865 12.37980 1426 ft 174 kts 43°
2026-05-04 13:35 45.53772 12.39265 1806 ft 192 kts 43°
2026-05-04 13:36 45.54724 12.40691 2285 ft 204 kts 48°
2026-05-04 13:36 45.55481 12.42511 2701 ft 226 kts 65°
2026-05-04 13:36 45.55813 12.44806 3126 ft 248 kts 88°
2026-05-04 13:36 45.55506 12.47301 3783 ft 265 kts 109°
2026-05-04 13:37 45.54534 12.49580 4501 ft 276 kts 132°
2026-05-04 13:37 45.52958 12.51124 5395 ft 276 kts 156°
2026-05-04 13:37 45.51105 12.51739 6431 ft 272 kts 173°
2026-05-04 13:37 45.49872 12.52031 7128 ft 271 kts 172°
2026-05-04 13:38 45.47404 12.52814 8386 ft 275 kts 167°
2026-05-04 13:38 45.45556 12.53614 9225 ft 282 kts 159°
2026-05-04 13:38 45.43988 12.55330 10027 ft 294 kts 128°
2026-05-04 13:38 45.43082 12.57998 10574 ft 310 kts 115°
2026-05-04 13:39 45.42107 12.60804 10865 ft 329 kts 121°
2026-05-04 13:39 45.40945 12.63686 11564 ft 333 kts 123°
2026-05-04 13:39 45.39699 12.66431 12326 ft 335 kts 131°
2026-05-04 13:39 45.37863 12.68375 13072 ft 332 kts 160°
2026-05-04 13:40 45.35603 12.68940 13799 ft 333 kts 182°
2026-05-04 13:40 45.33354 12.68184 14442 ft 336 kts 206°
2026-05-04 13:40 45.31512 12.66143 15100 ft 340 kts 226°
2026-05-04 13:40 45.29933 12.63640 15837 ft 340 kts 227°
2026-05-04 13:41 45.28380 12.61111 16571 ft 341 kts 228°
2026-05-04 13:41 45.26823 12.58523 17136 ft 347 kts 229°
2026-05-04 13:41 45.25250 12.55884 17731 ft 352 kts 228°
2026-05-04 13:42 45.22171 12.50403 18884 ft 361 kts 240°
2026-05-04 13:42 45.21480 12.46971 19423 ft 369 kts 264°
2026-05-04 13:42 45.21652 12.43321 20016 ft 374 kts 279°
2026-05-04 13:42 45.22463 12.39805 20639 ft 378 kts 293°
2026-05-04 13:43 45.23870 12.36642 21278 ft 382 kts 308°
2026-05-04 13:43 45.25666 12.33862 21958 ft 382 kts 310°
2026-05-04 13:43 45.27442 12.31015 22316 ft 390 kts 308°
2026-05-04 13:43 45.29201 12.28054 22776 ft 394 kts 307°
2026-05-04 13:44 45.30942 12.25021 23292 ft 397 kts 307°
2026-05-04 13:44 45.32676 12.21947 23821 ft 399 kts 307°
2026-05-04 13:44 45.34416 12.18861 24283 ft 401 kts 307°
2026-05-04 13:44 45.36170 12.15769 24710 ft 403 kts 307°
2026-05-04 13:45 45.37947 12.12660 25148 ft 405 kts 307°
2026-05-04 13:45 45.39734 12.09550 25597 ft 408 kts 307°
2026-05-04 13:45 45.41548 12.06426 25957 ft 412 kts 309°
2026-05-04 13:45 45.43609 12.03622 26328 ft 418 kts 319°
2026-05-04 13:46 45.45980 12.01185 26725 ft 421 kts 320°
2026-05-04 13:46 45.47956 11.98164 27102 ft 417 kts 299°
2026-05-04 13:46 45.49344 11.94528 27503 ft 418 kts 295°
2026-05-04 13:46 45.50729 11.90872 27908 ft 421 kts 296°
2026-05-04 13:47 45.52160 11.87226 28314 ft 423 kts 297°
2026-05-04 13:47 45.53629 11.83578 28728 ft 426 kts 297°
2026-05-04 13:47 45.55124 11.79917 29126 ft 428 kts 298°
2026-05-04 13:47 45.56632 11.76239 29539 ft 430 kts 297°
2026-05-04 13:48 45.58156 11.72515 29680 ft 438 kts 297°
2026-05-04 13:48 45.59695 11.68741 29974 ft 442 kts 297°
2026-05-04 13:48 45.61235 11.64944 30355 ft 442 kts 297°
2026-05-04 13:48 45.62770 11.61137 30720 ft 443 kts 296°
2026-05-04 13:49 45.64306 11.57315 31090 ft 443 kts 297°
2026-05-04 13:49 45.65836 11.53498 31464 ft 443 kts 297°
2026-05-04 13:49 45.67369 11.49665 31853 ft 443 kts 297°
2026-05-04 13:49 45.68895 11.45843 32247 ft 443 kts 297°
2026-05-04 13:50 45.70422 11.42011 32636 ft 443 kts 297°
2026-05-04 13:50 45.71942 11.38192 33033 ft 442 kts 297°
2026-05-04 13:50 45.73467 11.34362 33448 ft 442 kts 297°
2026-05-04 13:50 45.74988 11.30540 33858 ft 442 kts 297°
2026-05-04 13:51 45.76507 11.26720 34238 ft 441 kts 297°
2026-05-04 13:51 45.78023 11.22904 34604 ft 440 kts 297°
2026-05-04 13:51 45.79535 11.19094 34976 ft 439 kts 297°
2026-05-04 13:51 45.81038 11.15297 35348 ft 438 kts 297°
2026-05-04 13:52 45.84032 11.07717 36029 ft 438 kts 296°
2026-05-04 13:52 45.85542 11.03882 36080 ft 444 kts 296°
2026-05-04 13:53 45.88615 10.96061 36073 ft 454 kts 296°
2026-05-04 13:53 45.91730 10.88144 36080 ft 456 kts 296°
2026-05-04 13:54 45.96394 10.76211 36093 ft 457 kts 296°
2026-05-04 13:55 46.01042 10.64249 36090 ft 457 kts 296°
2026-05-04 13:55 46.05670 10.52326 36092 ft 457 kts 296°
2026-05-04 13:56 46.08751 10.44326 36097 ft 457 kts 296°
2026-05-04 13:57 46.13374 10.32303 36097 ft 457 kts 296°
2026-05-04 13:58 46.19515 10.16263 36108 ft 457 kts 296°
2026-05-04 13:58 46.24107 10.04202 36128 ft 457 kts 296°
2026-05-04 13:59 46.27152 9.96155 36143 ft 456 kts 295°
2026-05-04 14:00 46.31709 9.84093 36161 ft 455 kts 295°
2026-05-04 14:00 46.36234 9.72026 36157 ft 455 kts 295°
2026-05-04 14:01 46.39217 9.64027 36146 ft 455 kts 295°
2026-05-04 14:02 46.43726 9.51938 36118 ft 454 kts 295°
2026-05-04 14:02 46.46235 9.45197 36115 ft 454 kts 295°
2026-05-04 14:03 46.49229 9.37135 36090 ft 454 kts 295°
2026-05-04 14:03 46.52221 9.29070 36102 ft 454 kts 295°
2026-05-04 14:04 46.56677 9.16994 36080 ft 454 kts 295°
2026-05-04 14:04 46.59669 9.08901 36081 ft 454 kts 295°
2026-05-04 14:05 46.64116 8.96744 36073 ft 454 kts 294°
2026-05-04 14:06 46.67072 8.88614 36080 ft 455 kts 294°
2026-05-04 14:06 46.70031 8.80476 36072 ft 455 kts 294°
2026-05-04 14:07 46.72989 8.72319 36047 ft 455 kts 294°
2026-05-04 14:07 46.75934 8.64154 36020 ft 455 kts 294°
2026-05-04 14:08 46.78870 8.55980 36028 ft 455 kts 294°
2026-05-04 14:08 46.81807 8.47797 36012 ft 455 kts 294°
2026-05-04 14:09 46.86210 8.35501 35970 ft 456 kts 294°
2026-05-04 14:10 46.90575 8.23208 35973 ft 456 kts 294°
2026-05-04 14:10 46.93494 8.14972 35979 ft 456 kts 293°
2026-05-04 14:11 46.96412 8.06728 35975 ft 456 kts 293°
2026-05-04 14:11 47.00780 7.94332 35977 ft 456 kts 293°
2026-05-04 14:12 47.03676 7.86062 35975 ft 456 kts 293°
2026-05-04 14:13 47.08012 7.73629 35995 ft 457 kts 293°
2026-05-04 14:13 47.10897 7.65340 35994 ft 456 kts 293°
2026-05-04 14:14 47.13784 7.57024 36016 ft 457 kts 293°
2026-05-04 14:14 47.18096 7.44543 36030 ft 457 kts 293°
2026-05-04 14:15 47.23825 7.27889 36025 ft 458 kts 292°
2026-05-04 14:16 47.28109 7.15330 36024 ft 458 kts 292°
2026-05-04 14:17 47.32383 7.02732 36050 ft 458 kts 292°
2026-05-04 14:18 47.36651 6.90116 36030 ft 458 kts 292°
2026-05-04 14:19 47.42325 6.73249 36031 ft 459 kts 291°
2026-05-04 14:19 47.45156 6.64785 36038 ft 460 kts 291°
2026-05-04 14:20 47.47993 6.56292 36028 ft 461 kts 291°
2026-05-04 14:20 47.50826 6.47785 36027 ft 461 kts 291°
2026-05-04 14:21 47.55037 6.35055 36028 ft 461 kts 291°
2026-05-04 14:21 47.57863 6.26467 36042 ft 462 kts 291°
2026-05-04 14:22 47.60659 6.17964 36024 ft 463 kts 291°
2026-05-04 14:22 47.63473 6.09390 36024 ft 463 kts 291°
2026-05-04 14:23 47.67681 5.96489 36024 ft 463 kts 291°
2026-05-04 14:24 47.70474 5.87884 36044 ft 463 kts 290°
2026-05-04 14:24 47.73264 5.79264 36016 ft 463 kts 290°
2026-05-04 14:25 47.76048 5.70625 36005 ft 464 kts 290°
2026-05-04 14:25 47.80218 5.57645 36003 ft 464 kts 290°
2026-05-04 14:26 47.82993 5.48979 36027 ft 464 kts 290°
2026-05-04 14:26 47.85767 5.40300 36002 ft 464 kts 290°
2026-05-04 14:27 47.88523 5.31610 35997 ft 465 kts 290°
2026-05-04 14:27 47.91729 5.23206 35981 ft 474 kts 304°
2026-05-04 14:28 47.96152 5.15854 35979 ft 477 kts 307°
2026-05-04 14:28 48.00620 5.08511 35998 ft 477 kts 307°
2026-05-04 14:29 48.09517 4.93764 35971 ft 478 kts 307°
2026-05-04 14:30 48.13960 4.86353 35971 ft 478 kts 307°
2026-05-04 14:31 48.20585 4.75254 35961 ft 479 kts 307°
2026-05-04 14:32 48.29505 4.60382 35975 ft 480 kts 307°
2026-05-04 14:32 48.33947 4.52909 35967 ft 479 kts 307°
2026-05-04 14:33 48.38378 4.45407 35967 ft 480 kts 307°
2026-05-04 14:33 48.42805 4.37896 35968 ft 480 kts 307°
2026-05-04 14:34 48.47229 4.30376 35991 ft 480 kts 307°
2026-05-04 14:34 48.51655 4.22841 35970 ft 480 kts 307°
2026-05-04 14:35 48.56078 4.15299 35971 ft 480 kts 307°
2026-05-04 14:35 48.60504 4.07726 35972 ft 480 kts 307°
2026-05-04 14:36 48.64914 4.00140 35971 ft 480 kts 307°
2026-05-04 14:36 48.69318 3.92548 35970 ft 480 kts 307°
2026-05-04 14:37 48.73748 3.84981 35971 ft 481 kts 308°
2026-05-04 14:37 48.78484 3.77776 35968 ft 483 kts 312°
2026-05-04 14:38 48.83386 3.70784 35967 ft 484 kts 312°
2026-05-04 14:38 48.88238 3.63716 35968 ft 483 kts 311°
2026-05-04 14:39 48.93008 3.56539 35967 ft 482 kts 310°
2026-05-04 14:39 48.97760 3.49320 35984 ft 483 kts 311°
2026-05-04 14:40 49.04920 3.38522 35978 ft 483 kts 311°
2026-05-04 14:40 49.09699 3.31307 35972 ft 483 kts 311°
2026-05-04 14:41 49.14458 3.24077 35976 ft 483 kts 311°
2026-05-04 14:42 49.23960 3.09603 35984 ft 483 kts 311°
2026-05-04 14:42 49.28705 3.02343 35978 ft 482 kts 311°
2026-05-04 14:43 49.33440 2.95058 35974 ft 482 kts 311°
2026-05-04 14:43 49.38166 2.87775 35966 ft 481 kts 311°
2026-05-04 14:44 49.42896 2.80489 35963 ft 481 kts 311°
2026-05-04 14:44 49.47583 2.73252 35962 ft 481 kts 311°
2026-05-04 14:45 49.52291 2.65925 35963 ft 482 kts 311°
2026-05-04 14:45 49.57009 2.58511 35951 ft 481 kts 311°
2026-05-04 14:46 49.61842 2.51444 35950 ft 486 kts 320°
2026-05-04 14:46 49.67276 2.45129 35952 ft 486 kts 320°
2026-05-04 14:47 49.72661 2.38805 35950 ft 486 kts 319°
2026-05-04 14:47 49.78042 2.32471 35952 ft 486 kts 320°
2026-05-04 14:48 49.83397 2.26179 35977 ft 486 kts 320°
2026-05-04 14:48 49.88774 2.19820 35977 ft 487 kts 320°
2026-05-04 14:49 49.94138 2.13452 35966 ft 485 kts 319°
2026-05-04 14:49 49.99498 2.07055 35964 ft 485 kts 319°
2026-05-04 14:50 50.03981 2.01692 35962 ft 485 kts 319°
2026-05-04 14:50 50.09325 1.95284 35968 ft 482 kts 319°
2026-05-04 14:51 50.11942 1.92150 35940 ft 468 kts 319°
2026-05-04 14:51 50.14498 1.89085 35666 ft 461 kts 319°
2026-05-04 14:51 50.17015 1.86011 35262 ft 456 kts 315°
2026-05-04 14:51 50.19294 1.82635 34894 ft 449 kts 312°
2026-05-04 14:52 50.21490 1.79277 34515 ft 445 kts 311°
2026-05-04 14:52 50.23722 1.75871 34135 ft 441 kts 311°
2026-05-04 14:52 50.25913 1.72532 33717 ft 438 kts 311°
2026-05-04 14:52 50.28081 1.69228 33277 ft 433 kts 311°
2026-05-04 14:53 50.30227 1.65952 32839 ft 429 kts 311°
2026-05-04 14:53 50.32325 1.62746 32421 ft 425 kts 312°
2026-05-04 14:53 50.34457 1.59483 31990 ft 421 kts 312°
2026-05-04 14:53 50.36516 1.56327 31579 ft 418 kts 312°
2026-05-04 14:54 50.38609 1.53113 31167 ft 415 kts 312°
2026-05-04 14:54 50.40657 1.49955 30764 ft 412 kts 312°
2026-05-04 14:54 50.42688 1.46817 30372 ft 408 kts 312°
2026-05-04 14:54 50.44704 1.43700 29969 ft 405 kts 312°
2026-05-04 14:55 50.46682 1.40641 29514 ft 403 kts 312°
2026-05-04 14:55 50.48671 1.37565 29078 ft 400 kts 312°
2026-05-04 14:55 50.50627 1.34483 28633 ft 397 kts 311°
2026-05-04 14:55 50.52522 1.31343 28190 ft 395 kts 310°
2026-05-04 14:56 50.54375 1.28171 27762 ft 393 kts 309°
2026-05-04 14:56 50.56202 1.25003 27334 ft 391 kts 309°
2026-05-04 14:56 50.58024 1.21846 26912 ft 389 kts 309°
2026-05-04 14:56 50.59881 1.18760 26502 ft 387 kts 311°
2026-05-04 14:57 50.61768 1.15754 26093 ft 385 kts 312°
2026-05-04 14:57 50.63666 1.12803 25696 ft 383 kts 313°
2026-05-04 14:57 50.65561 1.09878 25300 ft 380 kts 313°
2026-05-04 14:57 50.67438 1.06967 24911 ft 377 kts 312°
2026-05-04 14:58 50.69290 1.04069 24556 ft 374 kts 312°
2026-05-04 14:58 50.71122 1.01180 24198 ft 371 kts 312°
2026-05-04 14:58 50.72932 0.98305 23849 ft 368 kts 312°
2026-05-04 14:58 50.74722 0.95448 23455 ft 365 kts 311°
2026-05-04 14:59 50.76497 0.92606 23025 ft 362 kts 312°
2026-05-04 14:59 50.78254 0.89793 22621 ft 358 kts 312°
2026-05-04 14:59 50.81722 0.84249 21780 ft 352 kts 312°
2026-05-04 15:00 50.83437 0.81502 21361 ft 350 kts 312°
2026-05-04 15:00 50.85138 0.78775 20950 ft 347 kts 313°
2026-05-04 15:00 50.86833 0.76058 20543 ft 345 kts 313°
2026-05-04 15:01 50.90179 0.70687 19769 ft 340 kts 313°
2026-05-04 15:01 50.91834 0.68030 19376 ft 338 kts 313°
2026-05-04 15:01 50.93483 0.65375 18990 ft 336 kts 313°
2026-05-04 15:01 50.95118 0.62742 18613 ft 335 kts 313°
2026-05-04 15:02 50.96749 0.60118 18240 ft 333 kts 313°
2026-05-04 15:02 50.98368 0.57509 17820 ft 331 kts 313°
2026-05-04 15:02 50.99975 0.54913 17416 ft 328 kts 313°
2026-05-04 15:02 51.01566 0.52337 17021 ft 326 kts 313°
2026-05-04 15:03 51.03144 0.49773 16631 ft 324 kts 313°
2026-05-04 15:03 51.04714 0.47223 16254 ft 321 kts 313°
2026-05-04 15:03 51.06278 0.44760 15871 ft 320 kts 314°
2026-05-04 15:03 51.07882 0.42319 15460 ft 319 kts 315°
2026-05-04 15:04 51.09501 0.39892 14983 ft 321 kts 315°
2026-05-04 15:04 51.11122 0.37472 14511 ft 317 kts 316°
2026-05-04 15:04 51.12719 0.35084 14055 ft 314 kts 316°
2026-05-04 15:04 51.14300 0.32710 13577 ft 310 kts 315°
2026-05-04 15:05 51.15855 0.30360 13070 ft 306 kts 315°
2026-05-04 15:05 51.17389 0.28029 12565 ft 304 kts 315°
2026-05-04 15:05 51.18909 0.25712 12085 ft 303 kts 315°
2026-05-04 15:05 51.20437 0.23382 11597 ft 305 kts 315°
2026-05-04 15:06 51.21970 0.21040 11120 ft 306 kts 315°
2026-05-04 15:06 51.23504 0.18696 10640 ft 302 kts 315°
2026-05-04 15:06 51.25004 0.16407 10178 ft 294 kts 315°
2026-05-04 15:07 51.27909 0.11965 9203 ft 285 kts 315°
2026-05-04 15:07 51.29331 0.09785 8707 ft 281 kts 315°
2026-05-04 15:07 51.30733 0.07640 8221 ft 278 kts 316°
2026-05-04 15:07 51.32114 0.05524 7794 ft 272 kts 315°
2026-05-04 15:08 51.33471 0.03444 7397 ft 268 kts 315°
2026-05-04 15:08 51.34796 0.01406 7073 ft 257 kts 314°
2026-05-04 15:08 51.36062 -0.00539 6675 ft 248 kts 315°
2026-05-04 15:08 51.37291 -0.02427 6252 ft 242 kts 315°
2026-05-04 15:09 51.38489 -0.04269 5817 ft 236 kts 315°
2026-05-04 15:09 51.39658 -0.06071 5381 ft 231 kts 315°
2026-05-04 15:09 51.40814 -0.07856 4843 ft 231 kts 316°
2026-05-04 15:10 51.43120 -0.11419 3779 ft 229 kts 316°
2026-05-04 15:10 51.44261 -0.13187 3282 ft 227 kts 317°
2026-05-04 15:10 51.46223 -0.16923 2529 ft 212 kts 292°
2026-05-04 15:11 51.46526 -0.19128 2500 ft 198 kts 273°
2026-05-04 15:11 51.46521 -0.21301 2524 ft 193 kts 270°
2026-05-04 15:11 51.46525 -0.23460 2481 ft 199 kts 272°
2026-05-04 15:11 51.46526 -0.25675 2283 ft 195 kts 272°
2026-05-04 15:12 51.46524 -0.27818 2051 ft 190 kts 271°
2026-05-04 15:12 51.46521 -0.29922 1807 ft 188 kts 271°
2026-05-04 15:12 51.46517 -0.31984 1556 ft 178 kts 271°
2026-05-04 15:12 51.46514 -0.33914 1327 ft 169 kts 271°
2026-05-04 15:13 51.46511 -0.35784 1098 ft 167 kts 271°
2026-05-04 15:13 51.46507 -0.37565 861 ft 150 kts 271°
2026-05-04 15:13 51.46508 -0.39163 624 ft 139 kts 272°
2026-05-04 15:13 51.46504 -0.40683 421 ft 134 kts 272°
2026-05-04 15:14 51.46500 -0.42153 252 ft 132 kts 272°
2026-05-04 15:14 51.46494 -0.43638 115 ft 132 kts 272°
2026-05-04 15:14 51.46498 -0.44963 89 ft 97 kts 269°
2026-05-04 15:14 51.46488 -0.45759 86 ft 49 kts 270°
2026-05-04 15:15 51.46487 -0.46108 86 ft 27 kts 269°
2026-05-04 15:15 51.46485 -0.46424 89 ft 30 kts 272°
2026-05-04 15:15 51.46543 -0.46736 90 ft 24 kts 295°
2026-05-04 15:16 51.46656 -0.46957 87 ft 17 kts 270°
2026-05-04 15:16 51.46657 -0.47158 86 ft 18 kts 270°
2026-05-04 15:16 51.46655 -0.47619 86 ft 21 kts 269°
2026-05-04 15:17 51.46654 -0.47859 86 ft 24 kts 269°
2026-05-04 15:17 51.46652 -0.48354 86 ft 14 kts 270°
2026-05-04 15:17 51.46683 -0.48465 87 ft 9 kts 346°
2026-05-04 15:18 51.46695 -0.48467 89 ft 2 kts 356°
2026-05-04 15:18 51.46727 -0.48468 86 ft 7 kts
2026-05-04 15:18 51.46800 -0.48471 86 ft 14 kts 357°
2026-05-04 15:19 51.46983 -0.48470 86 ft 17 kts 359°
2026-05-04 15:19 51.47095 -0.48471 86 ft 13 kts 359°
2026-05-04 15:19 51.47177 -0.48472 87 ft 0 kts 359°
2026-05-04 15:20 51.47185 -0.48493 90 ft 4 kts 291°
2026-05-04 15:20 51.47188 -0.48566 86 ft 5 kts 270°
2026-05-04 15:21 51.47188 -0.48594 86 ft 3 kts 269°
2026-05-04 15:21 51.47188 -0.48602 86 ft 0 kts 269°